Theta_e
309 307 306 306 308 307 307 308 307 305 304 308 309 309 308 308 308 308 307 306 306 306 304 304 303 302 302 302 302 301 302 302 303 303 303 305 306 306
309 308 308 308 308 308 307 308 309 307 305 308 309 308 307 306 307 308 307 306 306 306 306 304 303 302 302 300 300 300 300 301 301 301 302 302 305 305
309 309 309 309 309 309 309 309 309 310 307 309 308 307 307 307 307 308 307 307 307 305 305 303 303 302 301 300 299 299 300 300 300 300 303 304 305 305
310 310 310 310 311 310 309 309 309 309 309 307 307 307 306 307 306 305 306 305 305 305 304 304 303 302 301 300 299 298 299 299 299 300 300 300 300 302
309 309 311 311 312 311 311 311 310 310 308 306 306 306 305 305 304 305 304 303 304 304 304 303 302 301 301 299 299 299 299 299 300 300 299 299 300 301
312 311 310 312 313 312 312 310 310 308 305 306 305 306 305 304 304 304 304 303 303 303 302 302 301 301 301 300 300 300 300 299 300 298 298 299 299 298
306 306 309 312 312 312 310 309 307 305 305 305 304 305 305 305 304 303 302 302 301 301 302 301 301 300 300 301 300 300 299 299 299 299 298 297 298 298
307 310 312 313 312 310 308 306 304 304 304 303 304 304 304 304 304 302 302 302 298 301 301 301 301 300 301 301 301 300 300 300 299 299 298 298 298 299
312 313 313 313 312 307 303 301 300 300 301 304 304 304 303 303 303 302 301 302 301 302 301 300 301 300 300 300 300 299 300 301 300 299 298 299 299 299
313 313 313 310 303 302 301 300 301 302 303 301 301 303 303 303 302 302 302 302 302 302 301 300 300 300 300 299 300 300 301 301 300 300 300 299 299 299
308 310 310 303 301 300 301 301 301 301 299 299 302 303 303 304 303 303 303 302 301 302 301 300 300 299 300 300 301 301 300 301 301 300 300 300 300 300
307 305 302 301 301 302 302 301 301 301 302 303 303 303 303 304 303 303 303 303 302 302 302 300 300 300 299 300 300 300 300 299 299 300 300 300 299 300
304 305 304 301 301 302 303 302 302 302 303 302 303 303 303 303 303 303 303 304 303 303 303 302 301 300 300 300 301 301 301 301 301 301 301 300 300 301
304 306 303 300 301 303 304 303 303 303 303 303 303 303 302 302 302 303 303 303 303 303 303 304 303 303 301 301 300 302 302 302 303 303 302 301 300 300
304 302 301 301 301 303 303 303 303 303 303 302 302 301 301 302 303 302 302 303 303 303 303 304 303 304 304 303 302 303 302 303 303 303 302 301 300 300
298 299 303 302 303 303 303 303 302 302 302 300 301 300 302 302 302 302 302 303 303 303 302 303 303 303 304 303 304 304 304 304 304 304 304 302 301 300
301 301 303 303 302 301 301 301 301 301 301 300 300 301 302 302 302 302 302 303 302 302 302 302 302 303 303 304 304 303 303 304 304 304 303 303 302 301
301 301 302 304 302 301 301 300 299 300 300 300 300 299 300 301 301 301 302 303 302 302 302 302 302 302 302 301 302 303 303 304 304 303 303 303 302 301
302 302 302 302 302 301 301 300 300 299 299 299 299 299 299 299 299 300 300 301 301 301 302 301 302 302 299 300 301 302 302 302 303 303 303 302 301 300
303 302 300 301 302 301 301 300 300 299 298 298 298 299 299 299 299 298 298 299 300 300 301 300 302 300 300 296 301 302 302 303 303 303 301 300 300 299
300 299 299 299 300 301 301 300 299 299 298 298 299 298 297 297 296 296 297 297 298 298 300 300 301 299 299 300 301 301 300 302 302 301 299 299 298 298
299 299 298 298 297 297 297 297 297 298 297 296 294 292 292 292 294 295 295 295 296 296 298 300 301 300 298 299 298 299 300 301 300 300 300 298 298 295
298 298 298 297 296 296 296 297 296 295 294 292 290 289 289 291 292 292 292 293 293 294 298 298 300 299 298 299 298 300 299 298 298 298 298 298 298 297
Wind_Speed
1 5 9 8 8 12 11 11 3 2 3 17 20 21 22 18 14 14 13 12 13 14 11 12 13 12 11 13 14 17 19 18 18 18 19 20 20 19
2 3 5 7 7 8 12 13 15 6 3 19 20 22 25 23 23 19 15 13 13 15 14 12 12 13 15 14 15 17 17 16 17 19 21 21 21 20
5 5 6 8 5 7 11 14 15 17 8 19 21 24 26 27 22 19 14 10 11 11 13 15 16 16 15 15 20 18 15 16 17 16 14 14 14 15
6 8 11 13 9 15 17 18 19 18 10 16 23 20 22 15 14 12 7 8 13 13 14 16 13 15 16 21 21 16 16 17 15 15 15 16 18 17
10 13 14 15 19 17 19 17 18 17 14 18 19 21 16 12 14 12 13 16 13 15 14 16 14 16 16 18 16 15 14 14 14 14 13 14 14 14
11 14 17 18 17 14 21 15 14 11 14 16 19 20 12 15 10 11 16 16 15 13 11 8 13 14 18 18 16 15 14 14 15 15 14 14 15 17
17 18 18 18 21 14 12 14 9 12 15 19 20 17 10 13 11 13 17 18 18 10 10 17 19 18 18 15 12 13 15 15 15 15 14 12 12 15
18 21 19 17 14 6 4 3 8 13 16 17 14 6 9 11 11 13 14 13 5 7 21 21 19 19 14 15 15 16 16 15 15 16 13 13 15 16
20 22 23 15 8 2 3 9 15 16 17 12 10 8 12 13 10 14 12 13 17 19 14 22 23 19 16 18 23 17 16 15 14 13 14 16 17 19
22 22 7 3 3 7 12 14 13 13 9 13 12 14 12 14 13 13 13 17 19 18 15 11 22 21 20 23 10 7 7 9 12 15 17 19 20 22
11 7 5 7 6 8 11 13 14 14 15 14 10 13 15 12 14 14 14 16 13 13 17 10 12 19 23 17 6 6 11 12 13 16 17 18 19 18
4 4 5 7 6 9 11 11 14 16 19 17 17 17 15 12 12 13 16 17 15 9 10 6 13 13 7 8 14 15 14 15 18 16 16 18 18 18
8 8 2 4 6 9 9 10 15 16 14 17 17 15 15 14 17 16 17 18 19 15 24 15 9 10 7 10 16 21 18 19 20 19 16 16 15 15
9 3 6 5 2 7 10 11 11 11 11 18 17 18 19 18 19 18 16 13 17 18 21 22 14 19 13 9 10 21 26 24 20 19 17 15 15 15
11 11 12 11 3 7 14 13 13 10 16 15 18 23 20 17 20 21 21 18 21 17 17 17 16 19 20 18 13 20 18 22 24 18 16 16 15 13
7 6 7 2 3 6 6 9 8 10 8 15 18 19 17 19 22 23 24 25 25 21 21 16 16 14 16 16 16 22 23 11 20 19 16 16 16 15
12 11 10 8 1 2 7 9 9 12 10 19 18 20 22 23 23 22 26 24 20 21 25 23 23 13 11 17 17 19 23 21 18 10 9 14 15 13
14 15 18 9 7 2 8 11 13 13 13 17 18 20 21 21 23 25 25 22 21 22 24 26 25 12 15 18 11 17 20 16 11 5 8 11 13 11
15 16 13 6 5 0 4 9 11 10 12 16 17 20 20 22 23 24 24 22 23 25 25 24 13 11 3 4 11 10 18 15 13 13 10 7 9 10
8 7 9 3 4 2 4 6 8 12 14 17 18 19 19 21 23 23 22 21 23 25 23 22 5 12 6 5 10 19 13 12 9 7 4 4 6 8
9 13 14 17 10 6 5 6 10 14 16 19 18 16 20 21 24 23 23 24 25 23 18 13 5 14 14 14 9 9 18 9 5 5 4 6 5 6
13 13 14 16 14 15 15 16 20 14 14 17 24 27 27 24 23 24 24 22 22 23 23 17 11 13 15 12 11 13 10 5 4 6 6 4 3 2
13 13 14 13 15 18 19 17 12 19 24 29 31 30 27 24 24 23 22 20 22 23 23 23 7 9 16 13 14 11 5 7 5 4 3 4 4 6
Wind_Direction
185 22 23 17 13 8 360 7 34 319 301 322 330 328 325 317 309 302 296 306 292 310 298 296 305 315 312 309 306 309 305 294 285 284 282 274 268 269
204 327 319 324 335 333 348 343 331 294 250 307 313 316 318 315 302 293 295 298 285 303 288 289 297 304 309 311 316 310 302 298 292 288 282 277 265 265
298 293 300 319 287 292 323 323 324 312 276 306 319 325 322 327 319 291 310 294 290 302 298 297 302 299 299 312 315 309 294 291 292 289 283 277 274 269
297 304 302 303 302 310 307 310 308 309 300 310 320 335 348 37 36 18 6 329 315 306 299 300 293 302 303 316 313 305 300 301 299 288 277 276 274 278
298 295 301 307 308 307 307 300 294 301 310 313 319 328 328 2 348 334 334 330 315 315 309 304 308 310 307 319 307 305 305 297 306 294 282 277 273 273
286 298 307 309 309 305 296 287 294 293 309 308 312 310 321 342 343 347 335 333 326 319 320 320 322 309 313 310 306 300 294 302 293 300 287 284 273 282
294 302 307 306 313 304 291 289 295 304 313 319 313 306 319 340 339 332 326 322 325 319 320 322 327 320 316 322 307 296 307 299 296 297 292 288 281 290
304 309 308 300 295 265 263 314 315 316 318 324 308 304 317 317 314 321 326 326 327 319 326 323 328 325 324 316 315 300 303 296 288 295 281 279 289 294
309 309 308 291 255 227 303 329 322 322 324 325 312 322 310 321 313 321 319 317 309 318 322 322 328 314 318 312 309 294 291 290 291 290 275 287 297 294
318 313 285 182 91 7 342 329 335 340 357 346 337 329 319 317 308 312 310 306 306 312 323 301 321 318 316 326 334 314 300 314 295 292 286 286 295 294
343 356 152 87 29 15 1 352 349 344 341 339 342 335 326 317 309 300 308 312 306 307 318 309 317 319 319 336 1 326 312 297 296 300 288 294 304 297
331 126 107 40 39 11 3 354 340 344 342 346 347 347 342 321 328 312 306 284 282 300 313 260 285 313 315 303 303 330 323 307 301 294 282 284 295 293
333 226 234 345 7 3 349 340 336 333 348 352 342 340 342 345 336 334 324 308 283 276 299 270 266 267 234 281 303 307 310 306 310 309 303 291 277 283
324 224 271 274 325 345 346 332 337 343 333 342 346 341 338 336 341 341 335 327 325 310 315 295 261 267 256 270 271 300 307 310 308 304 298 294 284 281
299 306 302 313 275 343 341 323 320 343 347 340 328 325 333 334 334 335 338 333 329 326 323 311 292 294 269 267 261 287 289 301 298 288 285 281 280 282
311 316 331 196 349 347 342 347 353 350 8 345 328 326 343 342 339 340 334 333 329 334 342 347 327 300 286 288 284 274 288 263 288 292 280 281 272 276
342 342 354 198 129 354 15 5 6 359 342 358 350 346 341 343 341 336 334 330 322 325 326 335 342 335 328 310 281 299 302 302 302 281 275 277 281 280
333 332 347 203 175 124 17 3 3 354 350 346 347 342 340 339 336 334 334 327 326 325 328 329 331 345 347 343 322 300 303 296 293 289 295 271 286 288
298 302 340 192 174 313 1 352 347 355 345 342 334 334 333 333 335 334 330 330 331 329 326 329 339 15 329 318 319 312 309 307 304 291 309 270 289 302
342 337 22 346 195 259 333 318 325 340 337 339 334 334 337 337 333 328 322 317 320 319 321 331 15 10 327 284 295 315 341 319 290 299 315 304 300 312
48 38 21 2 343 324 328 312 324 323 327 337 341 343 339 333 326 322 320 322 322 322 311 330 358 341 351 341 329 320 328 321 272 294 311 318 323 330
40 29 19 14 45 28 17 3 355 21 16 350 338 334 332 330 322 318 317 313 314 316 310 316 301 329 358 339 313 305 332 14 341 290 292 319 300 302
29 28 18 32 24 13 5 6 13 349 345 340 334 331 328 322 317 312 308 309 308 310 304 317 293 340 352 334 323 312 329 347 341 331 333 335 299 310